Volver al catálogo

NIMBUS 2 DEB

ActivoLEO
NORAD 37889·DEBRIS·🇺🇸 United States

Lanzado May 15, 1966 desde Vandenberg Space Force Base

Loading…

Próximos Pases (próximas 24 horas)

TLE

EnvejeciendoSource: Space-Track

Época: Sep 11, 2026, 13:02 UTC

1 37889U 66040AU  26254.54342997  .00001595  00000-0  24304-2 0  9998
2 37889 100.5518 278.0255 0055462 327.8729 185.8794 13.53300455823808

Sigue NIMBUS 2 DEB en tiempo real con AllMySat

Download on the App Store